Location: Unspecified
(0.0000°N, 0.0000°E)
Time: 12:18:44
(UTC+00:00)

DMSP B5D2-4 - Pass Details

Date: 11 June 2023
Orbit: 794 x 805 km, 98.3° (Epoch: 03 October)

Event Time Altitude Azimuth Distance (km) Brightness Sun altitude
Rises 19:14:32 0° 359° (N) 3,287 8.6 -17.2°
Reaches altitude 10° 19:16:58 10° 352° (N) 2,361 7.9 -17.7°
Maximum altitude 19:21:52 42° 282° (WNW) 1,127 6.4 -18.8°
Drops below altitude 10° 19:26:48 10° 212° (SSW) 2,378 7.6 -19.9°
Sets 19:29:16 0° 205° (SSW) 3,312 8.3 -20.5°
